Flag for U.S.A. Weather past 2 weeks in Fort Worth, Texas, U.S.A.

Now
70 °F

Thundershowers. Fog.


Feels Like: 65 °F
Forecast: 70 / 79 °F
Wind: 6 mph from North

Location: Meacham International Airport

Current Time: May 24, 2015 at 3:04:14 AM

Latest Report: May 24, 2015 at 2:00 AM


Visibility: 4 mi

Pressure: 29.86 "Hg

Humidity: 93%

Dew point: 68 °F

Location of Fort WorthLocation

Historic Weather in Fort Worth — Graph

°F

Fort Worth temperature yesterday

Maximum temperature yesterday: 83 °F (at 3:53 PM)
Minimum temperature yesterday: 69 °F (at 12:53 AM)
Average temperature yesterday: 73 °F

Past Weeks' High & Low Weather Summary

 TemperatureHumidityPressure
High90 °F (May 18, 4:53 PM)97% (May 13, 1:04 PM)30.26 "Hg (May 13, 1:04 PM)
Low56 °F (May 21, 4:58 AM)42% (May 12, 10:53 AM)29.68 "Hg (May 16, 6:53 PM)
Average71 °F81%29.98 "Hg
* Reported May 9 2:01 AM — May 24 2:00 AM, Fort Worth, Weather by CustomWeather, © 2015

Note: Actual official high and low records may vary slightly from our data, if they occured in-between our weather recording intervals... More about our weather records

Advertising

Fort Worth weather history for previous 24 hours

 ConditionsComfort  
Time TempWeatherWind HumidityBarometerVisibility
2:00 AM
Sun, May 24
70 °FThundershowers. Fog.6 mph93%29.86 "Hg4 mi
12:53 AM71 °FRain. Fog.7 mph93%29.88 "Hg6 mi
11:53 PM
Sat, May 23
73 °FLight rain. Passing clouds.8 mph90%29.92 "Hg10 mi
10:53 PM72 °FOvercast.9 mph93%29.91 "Hg10 mi
10:00 PM72 °FPassing clouds.16 mph93%29.91 "Hg10 mi
8:53 PM71 °FLight rain. Scattered clouds.16 mph93%29.89 "Hg9 mi
7:53 PM71 °FRain. Fog.13 mph93%29.93 "Hg6 mi
6:53 PM71 °FThunderstorms. Mostly cloudy.14 mph90%29.94 "Hg8 mi
5:53 PM76 °FPassing clouds.15 mph80%29.89 "Hg10 mi
4:53 PM78 °FLight rain. Cloudy.21 mph79%29.90 "Hg10 mi
3:53 PM83 °FScattered clouds.22 mph68%29.90 "Hg10 mi
2:53 PM80 °FBroken clouds.15 mph76%29.94 "Hg10 mi
1:53 PM78 °FPartly sunny.18 mph82%29.99 "Hg10 mi
12:53 PM77 °FLight rain. Mostly cloudy.12 mph85%30.02 "Hg9 mi
11:53 AM75 °FFog.15 mph90%30.04 "Hg6 mi
10:53 AM73 °FLight rain. Fog.14 mph94%30.06 "Hg5 mi
9:53 AM73 °FLow clouds.14 mph90%30.06 "Hg7 mi
8:53 AM72 °FFog.15 mph93%30.07 "Hg5 mi
7:53 AM71 °FFog.12 mph93%30.07 "Hg3 mi
7:04 AM70 °FFog.14 mph97%30.08 "Hg3 mi
5:53 AM71 °FFog.14 mph93%30.06 "Hg4 mi
4:53 AM71 °FFog.10 mph93%30.05 "Hg6 mi
3:53 AM71 °FLow clouds.9 mph93%30.06 "Hg7 mi
Weather by CustomWeather, © 2015

See weather overviewHow to use our weather pages